Home > Weather > Providence > Past weeks

Flag for USA Weather for the Past 2 Weeks in Providence, Rhode Island, USA

Now
50 °F

Mostly cloudy.


Feels Like: 45 °F
Forecast: 39 / 61 °F
Wind: 13 mph from South

Location: Green State Airport

Current Time: Apr 28, 2016 at 5:59:29 PM

Latest Report: Apr 28, 2016 at 4:51 PM


Visibility: 10 mi

Pressure: 30.03 "Hg

Humidity: 52%

Dew Point: 33 °F

Location of ProvidenceLocation

Historic Weather in Providence — Graph

°F

Providence Temperature Yesterday

Maximum temperature yesterday: 56 °F (at 3:51 PM)
Minimum temperature yesterday: 36 °F (at 4:51 AM)
Average temperature yesterday: 47 °F

High & Low Weather Summary for the Past Weeks

 TemperatureHumidityPressure
High75 °F (Apr 18, 12:51 PM)97% (Apr 23, 6:51 AM)30.45 "Hg (Apr 23, 6:51 AM)
Low36 °F (Apr 14, 3:51 AM)14% (Apr 24, 3:51 PM)29.72 "Hg (Apr 26, 12:51 PM)
Average51 °F52%30.10 "Hg
* Reported Apr 13 3:51 PM — Apr 28 3:51 PM, Providence, Weather by CustomWeather, © 2016

Note: Actual official high and low records may vary slightly from our data, if they occured in-between our weather recording intervals... More about our weather records

Advertising

Providence Weather History for the Previous 24 Hours

Scroll right to see more
 ConditionsComfort  
Time TempWeatherWind HumidityBarometerVisibility
3:51 PM
Thu, Apr 28
52 °FBroken clouds.14 mph43%30.02 "Hg10 mi
2:51 PM55 °FBroken clouds.15 mph31%30.02 "Hg10 mi
1:51 PM55 °FBroken clouds.17 mph33%30.04 "Hg10 mi
12:51 PM57 °FBroken clouds.5 mph26%30.04 "Hg10 mi
11:51 AM56 °FBroken clouds.7 mph23%30.05 "Hg10 mi
10:51 AM54 °FPartly sunny.12 mph23%30.06 "Hg10 mi
9:51 AM51 °FPartly sunny.8 mph26%30.06 "Hg10 mi
8:51 AM50 °FPartly sunny.10 mph26%30.06 "Hg10 mi
7:51 AM47 °FPartly sunny.10 mph32%30.06 "Hg10 mi
6:51 AM44 °FScattered clouds.3 mph38%30.04 "Hg10 mi
5:51 AM40 °FPassing clouds.7 mph45%30.00 "Hg10 mi
4:51 AM40 °FClear.7 mph65%29.99 "Hg10 mi
3:51 AM43 °FClear.8 mph47%29.96 "Hg10 mi
2:51 AM44 °FClear.8 mph71%29.93 "Hg10 mi
1:51 AM45 °FClear.6 mph76%29.91 "Hg10 mi
12:51 AM45 °FClear.8 mph76%29.91 "Hg10 mi
11:51 PM
Wed, Apr 27
46 °FClear.9 mph73%29.89 "Hg10 mi
10:51 PM46 °FClear.10 mph73%29.88 "Hg10 mi
9:51 PM47 °FClear.9 mph69%29.86 "Hg10 mi
7:51 PM50 °FPassing clouds.13 mph52%29.83 "Hg10 mi
6:51 PM53 °FPassing clouds.10 mph48%29.83 "Hg10 mi
5:51 PM55 °FSunny.14 mph40%29.85 "Hg10 mi
Weather by CustomWeather, © 2016

See weather overviewHow to use our weather pages